{"data":{"norad_id":48583,"epoch":"2026-09-19T16:02:18.811392Z","epoch_age_seconds":109046,"freshness":"FRESH","line1":"1 48583U 21041AG  26262.66827328  .00002427  00000+0  89883-4 0  9990","line2":"2 48583  53.1608 326.2456 0001210  89.6783 270.4357 15.31718273294670","mean_motion":15.31718273,"eccentricity":0.000121,"inclination_deg":53.1608,"raan_deg":326.2456,"arg_perigee_deg":89.6783,"mean_anomaly_deg":270.4357,"bstar":8.9883e-5,"rev_number":29467,"period_min":94.012066408246,"perigee_km":469.8568173795,"apogee_km":471.51423243053,"semimajor_km":6848.822524905,"source":"CELESTRAK","updated_at":"2026-09-20T09:00:39.137196Z"}}